Redding, CA

6:07 AM PDT on June 23, 2018 (GMT -0700)
Redding Municipal

Weather History for KRDD - October, 2017

Change the Weather History Date:

Sunday, October 8, 2017

  Actual Average Record
Temperature  
Mean Temperature 69 °F -  
Max Temperature 78 °F 82 °F 99 °F (1996)
Min Temperature 60 °F 52 °F 43 °F (1994)
Degree Days  
Heating Degree Days 0    
Cooling Degree Days 4    
Growing Degree Days 19 (Base 50)    
Moisture  
Dew Point 27 °F    
Average Humidity 23    
Maximum Humidity 36    
Minimum Humidity 10    
Precipitation  
Precipitation 0.00 in 0.04 in 2.70 in (1997)
Month to date precipitation 0.00 0.27  
Year to date precipitation 29.01 22.04  
Sea Level Pressure  
Sea Level Pressure 29.95 in    
Wind  
Wind Speed 19 mph (North)    
Max Wind Speed 35 mph    
Max Gust Speed 46 mph    
Visibility 10 miles    
Events      
T = Trace of Precipitation, MM = Missing Value Source: NWS Daily Summary

Daily Weather History Graph

Daily Weather History Graph

Search for Another Location

Airport or City:

Astronomy

Oct. 08, 2017 Rise Set
Actual Time 7:13 AM PDT 6:39 PM PDT
Civil Twilight 6:45 AM PDT 7:06 PM PDT
Nautical Twilight 6:14 AM PDT 7:38 PM PDT
Astronomical Twilight 5:42 AM PDT 8:09 PM PDT
Moon 9:04 PM PDT (10/8) 10:22 AM PDT (10/8)
Length of Visible Light 12h 20m
Length of Day
11h 26m
Waning Gibbous, 88% of the Moon is Illuminated
Oct 8
Waning Gibbous
Oct 12
Last Quarter
Oct 19
New
Oct 27
First Quarter
Nov 3
Full

Hourly Weather History & Observations

Time (PDT) Temp. Dew Point Humidity Pressure Visibility Wind Dir Wind Speed Gust Speed Precip Events Conditions
12:53 AM 66.9 °F 37.0 °F 33% 29.81 in 10.0 mi North 6.9 mph - N/A   Clear
1:53 AM 68.0 °F 37.0 °F 32% 29.82 in 10.0 mi NNW 11.5 mph - N/A   Clear
2:53 AM 66.0 °F 36.0 °F 33% 29.82 in 10.0 mi North 13.8 mph 20.7 mph N/A   Clear
3:53 AM 64.9 °F 35.1 °F 33% 29.83 in 10.0 mi NNW 13.8 mph 23.0 mph N/A   Clear
4:53 AM 64.9 °F 36.0 °F 34% 29.85 in 10.0 mi North 25.3 mph 34.5 mph N/A   Clear
5:53 AM 63.0 °F 35.1 °F 35% 29.90 in 10.0 mi North 24.2 mph 35.7 mph N/A   Clear
6:53 AM 61.0 °F 33.1 °F 35% 29.92 in 10.0 mi North 28.8 mph 39.1 mph N/A   Clear
7:53 AM 62.1 °F 32.0 °F 32% 29.93 in 10.0 mi North 21.9 mph 33.4 mph N/A   Clear
8:53 AM 64.0 °F 30.0 °F 28% 29.96 in 10.0 mi North 28.8 mph 39.1 mph N/A   Clear
9:53 AM 66.0 °F 30.9 °F 27% 29.97 in 10.0 mi North 27.6 mph 36.8 mph N/A   Clear
10:53 AM 68.0 °F 30.0 °F 24% 29.98 in 10.0 mi North 29.9 mph 43.7 mph N/A   Clear
11:53 AM 71.1 °F 28.0 °F 20% 29.98 in 10.0 mi North 26.5 mph 38.0 mph N/A   Clear
12:53 PM 73.9 °F 24.1 °F 16% 29.97 in 10.0 mi North 26.5 mph 36.8 mph N/A   Clear
2:53 PM 77.0 °F 19.0 °F 11% 29.94 in 10.0 mi North 24.2 mph 32.2 mph N/A   Clear
3:53 PM 77.0 °F 21.0 °F 12% 29.94 in 10.0 mi NNE 21.9 mph 26.5 mph N/A   Clear
4:53 PM 77.0 °F 17.1 °F 10% 29.95 in 10.0 mi NNE 25.3 mph 35.7 mph N/A   Clear
5:53 PM 75.0 °F 16.0 °F 11% 29.96 in 10.0 mi NNE 25.3 mph 31.1 mph N/A   Clear
6:53 PM 72.0 °F 17.1 °F 12% 29.99 in 10.0 mi NNE 16.1 mph 25.3 mph N/A   Clear
7:53 PM 69.1 °F 19.0 °F 15% 30.02 in 10.0 mi NNE 11.5 mph - N/A   Clear
8:53 PM 66.9 °F 19.9 °F 17% 30.05 in 10.0 mi Variable 6.9 mph - N/A   Clear
9:53 PM 66.9 °F 19.9 °F 17% 30.08 in 10.0 mi North 9.2 mph - N/A   Clear
10:53 PM 66.9 °F 21.0 °F 17% 30.08 in 10.0 mi North 20.7 mph - N/A   Clear
11:53 PM 66.9 °F 19.9 °F 17% 30.07 in 10.0 mi North 20.7 mph 31.1 mph N/A   Clear